Zurück zum Katalog

CZ-6A DEB

AktivPO
NORAD 60654·DEBRIS·🇨🇳 China

Gestartet Aug 6, 2024 von Taiyuan Satellite Launch Center

Loading…

Nächste Überflüge (nächste 24 Stunden)

TLE

AktuellSource: Space-Track

Epoche: Sep 14, 2026, 10:49 UTC

1 60654U 24140BF  26257.45088181  .00004973  00000-0  61571-3 0  9995
2 60654  88.9713 255.0453 0133080 264.5912  94.0116 14.76433857112549

Verfolge CZ-6A DEB in Echtzeit mit AllMySat

Download on the App Store